• în Republica Moldova
  • Lista ţărilor
  • Pe 7 zile
  • Temperatura apei
  • Hartă satelitară
  • Meteo pe hartă
  • Widget-uri
  • user-avatar
    Intrare

    Meteo pe oră la Wiktoria

    Astăzi, 30 Aprilie, Duminică

    Timp Temperatura Precipitaţii Vânt Presiune Umiditate
    00:00 +12°C° 0 mm 1 m/s 755 mmHg 98%
    01:00 +11°C° 0 mm 1 m/s 755 mmHg 98%
    02:00 +11°C° 0 mm 1 m/s 755 mmHg 98%
    03:00 +10°C° 0 mm 1 m/s 755 mmHg 99%
    04:00 +10°C° 0 mm 1 m/s 755 mmHg 99%
    05:00 +9°C° 0 mm 1 m/s 755 mmHg 99%
    06:00 +9°C° 0 mm 1 m/s 755 mmHg 99%
    07:00 +8°C° 0 mm 0 m/s 755 mmHg 99%
    08:00 +10°C° 0 mm 0 m/s 755 mmHg 89%
    09:00 +13°C° 0 mm 0 m/s 755 mmHg 78%
    10:00 +15°C° 0 mm 0 m/s 755 mmHg 68%
    11:00 +16°C° 0 mm 0 m/s 754 mmHg 63%
    12:00 +19°C° 0 mm 1 m/s 754 mmHg 58%
    13:00 +20°C° 0 mm 1 m/s 753 mmHg 53%
    14:00 +20°C° 0 mm 1 m/s 753 mmHg 54%
    15:00 +20°C° 0 mm 1 m/s 753 mmHg 55%
    16:00 +20°C° 0 mm 1 m/s 753 mmHg 56%
    17:00 +18°C° 0 mm 1 m/s 753 mmHg 65%
    18:00 +15°C° 0 mm 1 m/s 753 mmHg 74%
    19:00 +13°C° 0 mm 1 m/s 753 mmHg 82%
    20:00 +12°C° 0 mm 1 m/s 753 mmHg 86%
    21:00 +11°C° 0 mm 1 m/s 753 mmHg 90%
    22:00 +9°C° 0 mm 0 m/s 753 mmHg 94%
    23:00 +9°C° 0 mm 0 m/s 752 mmHg 92%

    Mâine, 1 Mai, Luni

    Timp Temperatura Precipitaţii Vânt Presiune Umiditate
    00:00 +10°C° 0 mm 0 m/s 752 mmHg 90%
    01:00 +10°C° 0 mm 0 m/s 752 mmHg 88%
    02:00 +11°C° 0 mm 1 m/s 752 mmHg 88%
    03:00 +11°C° 0 mm 1 m/s 751 mmHg 88%
    04:00 +11°C° 0 mm 1 m/s 751 mmHg 87%
    05:00 +11°C° 0 mm 1 m/s 751 mmHg 88%
    06:00 +11°C° 0 mm 1 m/s 751 mmHg 88%
    07:00 +11°C° 0 mm 1 m/s 751 mmHg 89%
    08:00 +13°C° 0 mm 1 m/s 751 mmHg 83%
    09:00 +14°C° 0 mm 2 m/s 751 mmHg 76%
    10:00 +16°C° 0 mm 2 m/s 751 mmHg 70%
    11:00 +17°C° 0 mm 2 m/s 750 mmHg 66%
    12:00 +18°C° 0 mm 2 m/s 750 mmHg 62%
    13:00 +19°C° 0 mm 2 m/s 749 mmHg 58%
    14:00 +19°C° 0 mm 2 m/s 749 mmHg 57%
    15:00 +20°C° 0 mm 2 m/s 749 mmHg 56%
    16:00 +20°C° 0 mm 2 m/s 748 mmHg 55%
    17:00 +18°C° 0 mm 2 m/s 749 mmHg 62%
    18:00 +18°C° 0 mm 1 m/s 749 mmHg 69%
    19:00 +15°C° 0 mm 1 m/s 749 mmHg 77%
    20:00 +15°C° 0,1 mm 1 m/s 750 mmHg 80%
    21:00 +15°C° 0,1 mm 1 m/s 750 mmHg 83%
    22:00 +15°C° 0,1 mm 1 m/s 751 mmHg 87%
    23:00 +14°C° 0,1 mm 1 m/s 751 mmHg 88%

    Poimâine, 2 Mai, Marţi

    Timp Temperatura Precipitaţii Vânt Presiune Umiditate
    00:00 +14°C° 0,1 mm 1 m/s 751 mmHg 89%
    01:00 +13°C° 0,1 mm 1 m/s 751 mmHg 91%
    02:00 +12°C° 0 mm 1 m/s 751 mmHg 91%
    03:00 +11°C° 0 mm 1 m/s 751 mmHg 92%
    04:00 +10°C° 0 mm 1 m/s 751 mmHg 92%
    05:00 +9°C° 0 mm 1 m/s 752 mmHg 94%
    06:00 +9°C° 0 mm 1 m/s 752 mmHg 95%
    07:00 +8°C° 0 mm 1 m/s 753 mmHg 97%
    08:00 +9°C° 0 mm 1 m/s 753 mmHg 86%
    09:00 +11°C° 0 mm 1 m/s 754 mmHg 76%
    10:00 +13°C° 0 mm 2 m/s 754 mmHg 66%
    11:00 +14°C° 0 mm 2 m/s 754 mmHg 60%
    12:00 +14°C° 0 mm 2 m/s 754 mmHg 55%
    13:00 +15°C° 0 mm 2 m/s 754 mmHg 49%
    14:00 +15°C° 0 mm 2 m/s 754 mmHg 48%
    15:00 +16°C° 0 mm 1 m/s 754 mmHg 48%
    16:00 +16°C° 0 mm 1 m/s 754 mmHg 47%
    17:00 +14°C° 0 mm 1 m/s 754 mmHg 54%
    18:00 +13°C° 0 mm 1 m/s 755 mmHg 61%
    19:00 +11°C° 0 mm 1 m/s 756 mmHg 68%
    20:00 +11°C° 0 mm 1 m/s 756 mmHg 73%
    21:00 +10°C° 0 mm 1 m/s 757 mmHg 78%
    22:00 +10°C° 0 mm 1 m/s 757 mmHg 83%
    23:00 +10°C° 0 mm 1 m/s 757 mmHg 85%

    3 Mai, Miercuri

    Timp Temperatura Precipitaţii Vânt Presiune Umiditate
    00:00 +9°C° 0 mm 1 m/s 757 mmHg 88%
    01:00 +9°C° 0 mm 1 m/s 758 mmHg 90%
    02:00 +9°C° 0 mm 1 m/s 758 mmHg 90%
    03:00 +8°C° 0 mm 1 m/s 758 mmHg 90%
    04:00 +8°C° 0 mm 1 m/s 758 mmHg 89%
    05:00 +7°C° 0 mm 1 m/s 758 mmHg 89%
    06:00 +7°C° 0 mm 1 m/s 759 mmHg 90%
    07:00 +7°C° 0 mm 1 m/s 759 mmHg 90%
    08:00 +9°C° 0 mm 1 m/s 759 mmHg 79%
    09:00 +11°C° 0 mm 1 m/s 760 mmHg 68%
    10:00 +13°C° 0 mm 2 m/s 760 mmHg 58%
    11:00 +14°C° 0 mm 1 m/s 760 mmHg 52%
    12:00 +15°C° 0 mm 1 m/s 760 mmHg 46%
    13:00 +18°C° 0 mm 1 m/s 759 mmHg 40%
    14:00 +18°C° 0 mm 1 m/s 759 mmHg 41%
    15:00 +18°C° 0 mm 1 m/s 759 mmHg 41%
    16:00 +18°C° 0 mm 1 m/s 759 mmHg 42%
    17:00 +15°C° 0 mm 1 m/s 759 mmHg 51%
    18:00 +13°C° 0 mm 1 m/s 760 mmHg 59%
    19:00 +10°C° 0 mm 1 m/s 760 mmHg 68%
    20:00 +10°C° 0 mm 1 m/s 760 mmHg 72%
    21:00 +9°C° 0 mm 1 m/s 761 mmHg 77%
    22:00 +9°C° 0 mm 1 m/s 761 mmHg 82%
    23:00 +8°C° 0 mm 1 m/s 761 mmHg 83%

    4 Mai, Joi

    Timp Temperatura Precipitaţii Vânt Presiune Umiditate
    00:00 +8°C° 0 mm 1 m/s 761 mmHg 84%
    01:00 +7°C° 0 mm 1 m/s 761 mmHg 85%
    02:00 +7°C° 0 mm 1 m/s 761 mmHg 85%
    03:00 +7°C° 0 mm 1 m/s 761 mmHg 85%
    04:00 +6°C° 0 mm 1 m/s 761 mmHg 85%
    05:00 +6°C° 0 mm 1 m/s 761 mmHg 85%
    06:00 +6°C° 0 mm 1 m/s 761 mmHg 85%
    07:00 +6°C° 0 mm 1 m/s 762 mmHg 85%
    08:00 +9°C° 0 mm 1 m/s 762 mmHg 75%
    09:00 +11°C° 0 mm 1 m/s 762 mmHg 65%
    10:00 +14°C° 0 mm 1 m/s 762 mmHg 55%
    11:00 +15°C° 0 mm 1 m/s 762 mmHg 53%
    12:00 +16°C° 0 mm 1 m/s 761 mmHg 51%
    13:00 +19°C° 0 mm 1 m/s 761 mmHg 48%
    14:00 +19°C° 0 mm 1 m/s 760 mmHg 48%
    15:00 +17°C° 0 mm 0 m/s 760 mmHg 49%
    16:00 +17°C° 0 mm 0 m/s 760 mmHg 49%
    17:00 +15°C° 0 mm 0 m/s 760 mmHg 59%
    18:00 +13°C° 0 mm 1 m/s 760 mmHg 69%
    19:00 +11°C° 0 mm 1 m/s 760 mmHg 79%
    20:00 +10°C° 0 mm 1 m/s 761 mmHg 80%
    21:00 +10°C° 0 mm 1 m/s 761 mmHg 80%
    22:00 +10°C° 0 mm 1 m/s 761 mmHg 81%
    23:00 +10°C° 0 mm 1 m/s 761 mmHg 81%

    5 Mai, Vineri

    Timp Temperatura Precipitaţii Vânt Presiune Umiditate
    00:00 +10°C° 0 mm 1 m/s 760 mmHg 81%
    01:00 +10°C° 0 mm 1 m/s 760 mmHg 81%
    02:00 +10°C° 0 mm 1 m/s 760 mmHg 82%
    03:00 +9°C° 0 mm 1 m/s 760 mmHg 83%
    04:00 +9°C° 0 mm 1 m/s 760 mmHg 83%
    05:00 +9°C° 0 mm 1 m/s 760 mmHg 85%
    06:00 +9°C° 0 mm 1 m/s 761 mmHg 87%
    07:00 +9°C° 0 mm 1 m/s 761 mmHg 89%
    08:00 +11°C° 0 mm 1 m/s 761 mmHg 83%
    09:00 +13°C° 0 mm 1 m/s 761 mmHg 76%
    10:00 +15°C° 0 mm 2 m/s 761 mmHg 70%
    11:00 +18°C° 0 mm 1 m/s 760 mmHg 66%
    12:00 +19°C° 0 mm 1 m/s 760 mmHg 61%
    13:00 +20°C° 0 mm 1 m/s 759 mmHg 57%
    14:00 +20°C° 0 mm 1 m/s 759 mmHg 56%
    15:00 +20°C° 0 mm 1 m/s 758 mmHg 55%
    16:00 +21°C° 0 mm 1 m/s 758 mmHg 54%
    17:00 +19°C° 0 mm 1 m/s 758 mmHg 61%
    18:00 +16°C° 0 mm 1 m/s 758 mmHg 68%
    19:00 +14°C° 0 mm 1 m/s 758 mmHg 75%
    20:00 +14°C° 0 mm 1 m/s 758 mmHg 76%
    21:00 +14°C° 0 mm 1 m/s 758 mmHg 77%
    22:00 +13°C° 0 mm 1 m/s 758 mmHg 78%
    23:00 +13°C° 0 mm 1 m/s 758 mmHg 80%
    Arată mai mult